Dewpoint
57 57 57 56 56 56 56 57 57 57 58 58 58 58 58 59 58 53 38 41 50 64 59 42 35 35 34 33 32 25 25 25 25 37 40 43 44 52 54 53 51 53 55 56 64
57 57 57 57 56 55 56 56 56 57 57 57 57 57 58 59 52 37 54 62 63 63 37 30 28 31 30 30 29 25 28 24 24 34 23 28 34 46 51 52 53 54 59 62 64
57 57 57 57 56 56 55 56 56 56 56 56 57 57 58 57 26 33 63 64 65 55 32 28 30 27 29 26 26 24 27 21 20 22 24 18 19 35 44 46 50 53 58 61 62
57 57 57 57 56 56 55 55 55 56 55 56 56 58 58 44 10 19 66 65 66 35 29 28 27 26 27 25 23 21 21 20 18 17 16 14 17 29 41 39 52 55 58 60 61
57 57 57 57 56 56 55 55 55 55 55 55 56 58 49 29 23 39 66 66 56 31 22 28 22 26 21 22 20 20 18 18 17 15 14 16 18 22 42 52 55 56 58 59 59
58 58 57 57 57 56 56 55 54 54 54 54 56 59 41 23 20 47 50 45 37 30 25 28 24 25 22 19 18 17 16 14 13 13 16 26 39 38 48 54 54 56 57 58 59
58 58 57 57 57 56 55 54 53 53 54 55 57 53 38 25 30 41 35 26 27 26 22 28 31 23 18 14 14 12 12 13 14 17 26 41 39 40 51 53 53 54 56 57 59
58 58 57 57 57 56 55 54 53 53 54 57 58 52 32 32 35 37 36 26 21 24 27 27 29 19 17 14 15 12 15 9 15 17 41 40 25 39 53 52 52 53 54 55 57
58 58 58 57 57 56 55 53 52 53 56 58 49 40 28 41 33 35 33 24 21 19 24 23 21 20 16 11 10 16 7 11 13 21 40 37 33 35 53 51 50 52 53 53 55
56 57 57 57 57 56 53 52 50 53 54 54 49 38 33 25 25 27 33 25 22 16 15 21 21 18 17 10 7 9 8 13 15 16 17 22 19 21 48 53 50 51 52 53 54
56 56 57 57 56 55 49 37 36 32 40 32 30 32 30 28 26 24 30 27 26 23 18 18 16 13 13 16 12 11 14 15 17 17 16 17 19 18 25 52 53 52 52 52 54
55 56 57 57 56 53 47 40 43 44 39 38 39 37 34 30 26 22 28 27 27 22 19 16 14 15 14 15 16 16 14 14 17 16 17 17 18 40 43 44 49 53 54 54 54
55 55 56 56 55 46 44 42 45 45 39 36 36 33 31 29 25 22 27 29 28 27 23 23 14 14 13 15 15 16 13 15 13 15 16 19 18 39 43 48 52 54 55 53 54
55 54 56 55 46 42 36 43 42 47 30 23 22 28 25 27 24 24 20 28 26 27 23 24 19 12 11 10 13 12 14 13 14 14 11 19 12 31 46 48 55 56 57 58 58
54 54 55 53 50 42 36 45 40 41 13 15 20 21 21 18 15 19 25 28 26 26 24 23 17 15 16 14 14 10 16 15 15 16 18 16 10 41 50 50 54 55 55 57 60
54 54 55 50 49 48 46 41 39 25 17 16 23 18 17 16 16 20 20 28 28 24 22 25 20 18 16 15 15 19 19 20 19 17 14 17 14 44 52 54 55 52 51 53 53
53 53 54 47 45 46 45 35 28 20 22 13 19 17 14 13 15 20 20 23 24 26 26 25 22 23 25 23 20 21 23 16 15 13 13 29 35 49 54 55 53 52 52 52 54
53 52 52 52 49 48 41 30 26 24 21 21 20 21 14 13 14 20 22 22 29 28 26 24 18 23 25 23 23 22 23 15 15 13 13 36 39 51 55 54 55 55 52 53 58
52 51 48 50 53 49 29 20 20 28 26 25 23 21 16 13 11 20 23 22 25 30 25 26 22 24 22 20 21 19 16 22 25 24 19 40 47 48 53 52 54 51 53 58 61
49 44 45 50 52 41 29 22 26 33 34 29 25 25 18 13 14 20 23 24 25 27 31 30 21 23 21 18 20 21 22 19 21 22 18 36 40 41 47 51 52 53 56 60 60
47 43 43 49 44 38 27 25 20 24 35 32 28 25 25 24 20 19 21 19 24 26 29 30 28 25 23 21 20 19 18 26 28 26 17 29 35 47 51 53 54 57 59 59 60
47 38 44 46 39 34 33 28 28 18 31 33 32 30 28 29 25 19 21 21 23 28 25 29 33 25 25 29 30 21 24 31 18 28 32 31 39 54 53 55 57 58 60 60 61
44 42 44 44 33 34 35 31 26 21 30 34 34 34 33 30 30 26 22 22 25 25 29 34 33 26 31 33 35 30 27 30 37 39 37 23 44 54 56 58 59 58 59 59 60
45 38 43 43 40 35 34 30 27 23 23 28 34 34 30 27 30 29 29 33 26 26 49 44 37 32 23 30 34 33 30 29 35 28 34 33 48 53 55 56 58 57 57 57 58
45 40 40 35 37 36 36 32 25 25 23 30 31 31 29 30 28 32 35 37 35 47 35 44 34 30 36 33 39 40 32 30 32 35 27 38 47 53 53 55 58 58 56 55 56
43 41 44 41 40 34 35 32 27 26 24 23 28 31 31 31 30 28 30 34 36 37 36 40 37 39 41 42 41 42 42 42 42 46 47 47 48 54 57 56 55 55 54 53 54
48 50 44 41 39 34 31 31 27 28 26 23 26 28 28 29 33 41 44 41 38 40 40 42 39 37 38 42 38 36 46 46 48 48 49 47 51 55 53 53 53 53 53 54 55
Lifted_Index
9 9 9 10 11 12 12 12 13 13 13 13 12 12 12 12 10 9 9 10 10 10 10 10 10 9 8 6 5 4 3 2 2 1 2 2 3 2 2 2 2 2 1 1 1
10 10 10 10 11 11 12 12 13 13 13 13 13 12 12 11 10 9 9 9 9 10 10 10 10 9 8 6 5 4 3 3 3 3 3 3 4 3 2 2 2 2 1 1 1
10 10 10 11 11 12 12 12 13 13 13 13 13 12 12 11 9 8 8 8 9 10 11 11 10 9 7 6 5 4 3 4 4 4 4 4 5 4 3 2 1 1 1 1 1
10 10 11 11 12 12 12 12 13 13 13 13 13 12 11 10 9 8 7 7 8 10 11 10 9 8 7 6 6 4 4 4 5 5 5 5 4 3 3 2 1 1 1 1 1
10 10 11 11 12 12 13 13 13 13 13 13 13 12 11 10 9 9 7 6 8 9 10 10 9 8 7 7 6 5 4 4 4 4 4 4 3 2 2 1 1 1 1 1 1
10 10 11 11 12 12 13 13 13 13 13 13 12 11 10 9 10 10 9 8 9 9 10 10 9 9 8 7 7 6 5 4 4 4 4 4 3 2 1 1 1 1 1 1 1
10 10 11 11 11 12 13 14 14 14 13 12 12 11 10 10 11 11 10 9 10 11 11 11 10 10 9 8 8 7 5 4 4 4 4 3 2 1 1 1 1 1 1 1 1
10 10 10 11 11 12 13 14 15 15 14 12 11 10 10 11 12 12 10 9 10 11 12 11 11 10 9 8 7 6 5 4 4 4 3 3 2 1 0 0 0 1 1 1 0
11 10 10 10 11 12 13 15 15 14 13 12 11 10 10 10 11 11 10 9 9 11 11 11 10 9 8 7 5 5 4 3 4 4 3 3 3 2 1 -0 -0 0 0 0 -0
12 11 10 10 11 12 14 15 14 13 12 11 10 10 10 10 11 10 10 9 10 10 10 9 8 7 7 5 4 4 4 3 3 4 4 3 3 3 2 -0 -1 -1 -0 -0 -1
12 12 11 10 10 12 14 14 14 13 11 11 10 10 10 11 11 10 10 9 9 9 9 8 6 6 6 6 5 4 4 3 4 4 4 4 4 4 2 0 -1 -1 -1 -1 -1
13 12 11 10 10 11 13 14 14 13 12 11 11 10 10 11 10 10 9 9 9 8 8 7 6 6 7 7 6 5 4 3 4 4 4 4 4 4 3 1 -0 -1 -1 -2 -2
13 13 12 11 10 11 12 14 14 13 11 10 10 10 10 10 9 9 9 8 8 8 8 7 7 7 7 6 5 5 4 4 4 4 4 4 4 4 3 1 0 -1 -1 -1 -2
13 13 12 11 10 10 12 14 14 12 9 7 9 10 10 9 9 9 9 8 8 8 7 7 7 7 7 6 5 5 5 5 4 4 3 3 3 3 2 0 -1 -1 -1 -1 -2
13 13 12 11 10 10 12 14 13 10 6 6 8 10 9 8 8 8 8 8 7 7 7 7 7 7 7 6 6 5 5 5 5 4 3 3 3 2 0 -1 -1 -1 -0 -0 -1
13 13 12 10 10 10 12 13 11 7 5 6 8 9 8 7 7 7 8 7 7 7 7 7 8 8 7 7 7 6 5 4 4 3 3 3 2 0 -1 -1 -1 -0 0 0 0
13 13 12 10 10 11 12 11 9 6 6 7 8 8 7 6 6 7 7 6 6 6 6 6 7 7 7 7 6 5 4 3 2 2 2 2 1 -1 -2 -1 -1 -0 0 0 0
13 13 12 11 10 10 11 10 7 7 8 8 8 7 6 6 6 6 6 6 6 5 4 4 5 6 6 6 5 4 3 2 1 1 2 2 -0 -2 -2 -1 -1 -1 -1 -1 -1
13 13 12 11 9 9 9 9 8 8 8 8 7 6 6 6 6 6 6 5 5 5 4 4 4 5 5 5 4 3 3 2 2 1 1 0 -1 -2 -2 -2 -2 -1 -1 -2 -2
11 11 10 9 8 7 7 9 9 9 8 8 7 6 6 6 6 6 6 6 6 5 5 4 4 4 4 4 3 3 2 2 2 1 1 0 -1 -1 -2 -2 -2 -2 -2 -3 -3
8 8 7 6 5 5 6 8 9 9 8 7 6 6 6 6 6 5 5 6 6 5 5 5 4 3 3 3 3 2 2 2 1 1 1 0 -1 -1 -2 -3 -3 -3 -4 -4 -4
7 6 6 5 5 4 5 6 7 8 7 6 5 6 6 6 6 6 5 5 5 5 5 5 4 3 3 2 2 2 1 1 1 1 1 0 -1 -2 -3 -4 -4 -5 -5 -5 -4
7 6 6 5 5 4 4 4 4 5 5 4 4 5 6 6 6 6 6 5 5 5 5 4 3 2 2 1 1 1 1 1 1 1 0 -0 -2 -3 -4 -5 -5 -5 -5 -5 -4
7 7 6 5 4 3 3 3 3 3 4 4 4 4 5 5 5 5 5 5 5 5 4 4 3 2 1 1 0 0 1 1 0 0 0 -1 -3 -4 -5 -5 -5 -5 -4 -4 -3
7 6 5 4 3 2 3 3 3 3 3 4 3 4 4 4 4 3 3 4 4 4 4 3 2 1 0 -0 -1 -1 -0 -0 -1 -1 -1 -2 -3 -4 -4 -4 -4 -4 -4 -3 -2
6 6 4 3 2 2 3 3 3 2 3 4 4 4 4 4 3 3 3 3 3 4 4 3 2 0 -1 -2 -2 -2 -2 -2 -2 -2 -2 -3 -4 -4 -4 -4 -4 -3 -3 -2 -1
6 5 4 3 2 2 3 3 3 2 2 3 4 4 4 4 4 3 3 3 3 3 3 3 2 -0 -2 -2 -2 -2 -2 -2 -2 -3 -3 -4 -4 -4 -4 -4 -3 -3 -2 -1 -1